Wind_Speed
22 24 25 24 23 24 24 24 25 25 25 25 25 26 27 26 25 25 25 25 24 23 22 22 22 22 21 20 20 20 20 19 19 19 19 19 18 18 17 17 16 16 15 15
24 24 25 25 25 25 25 25 26 27 27 27 26 26 27 27 27 26 26 26 25 24 24 24 23 23 23 22 22 22 22 21 21 21 20 20 19 19 18 17 17 17 16 15
25 24 26 26 25 26 25 25 26 27 28 28 28 29 29 27 27 27 26 26 26 26 25 25 25 24 24 23 24 24 23 23 22 22 22 21 20 19 19 18 18 18 18 17
25 25 27 26 26 26 26 26 26 27 27 27 28 29 30 28 27 27 26 26 27 27 26 26 26 25 25 24 24 24 23 23 23 23 23 22 21 21 20 20 20 19 19 19
25 26 27 26 25 26 27 28 27 27 28 28 28 29 29 29 27 27 27 27 27 27 27 27 27 26 26 25 24 24 24 24 24 24 24 24 23 23 22 21 21 20 20 19
25 26 27 26 25 25 26 27 26 26 27 28 29 29 29 28 27 27 27 28 28 27 27 27 27 26 25 26 26 25 25 25 25 25 25 24 24 23 23 23 22 22 22 21
25 26 27 26 26 26 26 26 26 26 26 27 28 28 28 27 28 28 27 27 27 27 26 27 27 26 26 26 26 26 25 25 24 25 25 25 25 25 25 25 24 24 24 23
25 26 27 26 26 27 27 27 26 26 26 27 28 28 27 27 28 28 28 27 26 27 26 26 27 26 26 26 25 25 25 26 26 26 26 26 27 27 26 26 26 25 25 25
26 27 27 27 28 27 27 27 26 27 27 27 27 28 27 27 28 28 28 28 27 27 27 27 27 28 27 26 26 25 25 26 26 27 27 27 27 27 26 26 26 26 26 26
26 27 28 29 29 28 28 28 27 28 27 27 28 27 27 27 28 28 28 28 27 27 27 27 27 28 27 27 26 26 26 26 27 28 28 28 28 27 27 27 27 27 27 27
27 27 29 29 29 29 29 29 29 29 29 29 29 28 28 27 28 28 28 27 27 27 27 27 28 28 27 28 27 27 27 27 27 27 27 27 28 28 28 28 28 29 29 29
28 28 29 29 29 29 29 29 29 30 30 30 30 29 28 27 28 28 28 28 28 28 28 28 28 28 28 29 28 28 28 27 27 27 27 27 27 28 28 28 28 29 29 30
29 29 29 30 30 29 29 29 29 29 29 28 28 28 28 27 28 28 27 28 28 28 28 28 28 28 28 29 29 29 29 29 29 28 28 29 29 28 28 29 28 29 30 31
28 29 30 29 30 30 29 29 29 29 29 28 28 28 27 27 28 28 28 28 28 29 29 29 29 29 29 30 30 30 30 29 30 30 29 30 29 29 30 30 31 30 31 32
29 30 30 30 30 30 31 30 30 30 29 29 28 28 28 27 28 29 29 29 29 30 30 29 30 30 30 31 30 30 30 30 30 30 31 31 31 30 31 31 31 31 31 32
29 29 30 30 30 30 31 31 31 30 30 29 28 28 28 28 29 29 29 30 30 31 31 31 32 31 31 31 31 31 31 31 31 31 31 32 32 32 32 32 31 32 32 32
30 30 30 30 30 30 30 30 30 30 29 28 28 29 29 30 30 30 30 31 31 32 32 33 32 31 32 32 31 31 31 31 31 31 31 31 32 32 32 32 32 32 32 32
30 30 30 30 29 28 28 29 29 29 29 29 29 30 30 30 30 30 31 32 32 33 33 33 32 32 32 32 31 31 31 31 31 31 31 31 32 32 32 33 33 33 34 34
29 30 30 30 29 29 28 29 29 29 29 29 30 30 30 31 31 32 32 32 33 33 32 32 32 32 32 32 31 31 31 32 32 32 32 32 32 32 33 34 34 34 34 35
29 29 29 29 29 29 29 29 29 29 30 30 30 30 31 31 31 32 32 32 32 32 32 32 31 31 32 31 31 31 32 32 32 32 33 32 32 33 33 34 35 35 36 35
28 29 29 30 29 29 29 29 30 30 30 31 31 31 31 31 31 31 31 32 31 32 32 31 32 32 32 32 32 32 32 32 33 33 33 33 34 33 33 33 34 34 34 34
27 28 28 29 29 29 28 29 29 29 29 30 30 30 31 31 30 30 30 30 30 30 31 31 31 31 31 31 31 31 32 33 33 33 33 33 33 33 32 32 33 33 33 32
27 27 27 27 27 27 28 28 28 28 28 29 30 30 31 30 30 30 29 29 30 30 29 30 30 31 30 30 30 30 31 31 31 32 32 33 33 33 33 32 33 33 32 31
27 26 26 26 26 26 27 27 27 28 28 29 29 30 30 29 29 29 30 30 30 29 29 29 29 29 29 30 30 31 31 31 31 32 32 32 32 32 32 32 32 31 31 30
27 27 27 26 26 26 26 26 26 26 27 27 27 27 27 28 28 28 29 29 29 29 29 28 29 30 30 30 31 31 31 31 31 31 31 31 31 32 32 32 31 31 31 31
28 27 27 27 27 27 27 26 26 26 26 26 26 26 26 26 26 26 26 26 27 27 28 28 29 29 29 29 29 29 29 30 30 31 31 31 31 31 31 31 31 31 32 32
27 27 27 27 27 28 27 27 27 27 26 26 26 26 26 26 26 26 25 25 26 26 27 27 27 27 27 28 28 28 29 29 30 30 31 31 31 31 31 31 31 31 32 32
Wind_Direction
264 266 270 271 272 271 270 268 265 265 266 270 274 277 276 274 274 271 270 270 271 269 269 270 270 270 271 272 273 272 272 274 273 274 276 277 277 277 276 274 273 274 275 276
266 268 269 269 271 272 273 272 268 266 266 269 271 271 274 275 273 270 269 269 268 268 268 269 269 269 270 270 273 272 272 272 272 273 274 276 274 274 273 272 272 273 273 274
269 268 270 271 271 270 271 272 270 269 268 270 272 269 270 273 273 272 270 269 268 267 267 268 268 269 269 270 271 272 271 270 272 272 272 273 271 271 270 271 272 274 274 272
272 272 273 275 275 273 272 273 272 270 269 269 270 269 269 269 270 270 270 269 267 266 266 268 269 270 269 269 269 270 270 269 270 271 271 270 270 270 269 269 271 271 272 272
274 275 276 277 280 277 275 273 272 270 268 268 269 269 269 267 267 268 268 270 267 266 266 267 268 270 269 269 269 270 270 269 269 270 270 269 267 268 268 268 269 269 269 269
274 275 277 278 281 281 278 276 272 270 270 270 268 268 268 267 265 265 268 270 269 267 267 268 269 269 270 270 270 271 270 270 269 270 269 267 267 267 267 266 267 269 269 270
276 275 278 280 281 279 278 279 277 273 271 270 269 269 269 268 268 266 266 268 268 267 267 268 269 270 270 271 271 270 269 268 269 269 269 267 267 267 268 267 267 267 268 269
276 276 278 280 281 278 278 279 278 275 272 272 271 270 270 270 269 269 267 266 266 266 266 268 269 269 270 271 270 270 269 269 267 268 269 268 267 267 267 266 265 265 266 267
275 276 278 278 280 280 278 277 275 274 274 274 273 271 270 269 270 270 270 268 267 267 267 268 270 270 270 270 270 270 270 270 268 268 268 268 268 268 267 266 266 265 266 267
275 275 275 276 277 278 277 275 273 273 273 274 273 272 271 268 269 270 270 269 268 267 268 269 270 270 268 269 269 269 270 271 271 270 270 269 268 269 268 266 266 265 265 267
275 277 276 275 276 277 276 277 275 274 273 273 272 271 271 270 270 270 270 269 269 268 268 269 269 269 269 269 268 269 271 272 272 272 271 270 270 269 268 267 267 267 267 267
275 275 276 277 279 280 277 277 278 277 276 273 271 270 270 270 271 271 270 269 269 269 269 269 268 268 269 269 268 268 270 271 272 272 272 272 271 269 269 269 268 267 267 267
275 277 279 280 280 280 279 278 279 278 276 276 274 273 272 271 270 270 270 271 271 271 271 270 269 269 269 269 268 267 269 270 271 272 272 271 272 272 270 269 269 269 267 266
276 277 280 282 281 280 279 279 278 276 275 275 275 273 271 270 269 270 270 271 271 272 272 270 269 269 269 270 269 268 269 270 270 270 271 271 272 272 272 271 271 271 270 269
279 279 280 280 280 279 277 277 277 276 274 276 276 275 272 271 271 270 269 269 271 272 272 272 270 269 270 271 270 269 270 269 270 270 270 271 271 272 272 273 273 273 273 271
280 280 280 280 281 280 278 276 275 274 274 276 276 276 275 274 274 272 271 270 271 272 272 273 273 271 270 270 270 270 270 270 270 270 271 272 271 272 273 273 274 274 273 272
281 281 281 282 282 281 279 277 275 275 276 276 275 275 276 275 274 273 273 271 272 273 274 274 273 272 272 271 270 271 271 271 270 271 272 272 272 272 273 274 275 276 275 273
280 280 281 282 283 282 281 279 276 275 275 276 276 276 276 276 275 274 274 273 273 274 274 273 272 272 272 270 270 271 272 271 271 272 272 272 272 272 273 274 276 276 276 275
280 280 281 282 282 281 281 280 279 278 277 277 277 277 277 277 276 275 275 274 274 273 273 273 272 270 270 269 270 270 271 272 273 272 273 273 273 273 273 274 275 275 276 276
279 280 280 282 282 282 282 281 280 279 278 278 278 278 278 278 277 276 275 275 275 275 273 271 270 270 270 269 270 271 271 272 273 274 274 274 274 275 275 275 275 275 276 276
281 281 281 282 282 282 281 281 281 280 279 279 279 279 279 278 277 277 276 276 276 275 273 272 271 271 271 271 272 272 272 273 274 274 274 275 276 277 278 278 277 276 276 276
284 283 283 282 282 281 281 281 281 281 280 279 279 279 279 279 278 278 278 277 276 276 275 273 273 272 272 273 273 272 272 274 275 276 275 276 277 277 278 278 278 277 276 276
285 285 285 285 284 283 282 281 281 281 281 280 280 279 279 279 279 278 278 277 277 277 276 275 274 273 273 273 274 274 274 275 276 277 277 278 278 278 278 278 278 277 275 276
285 287 288 287 287 285 283 282 282 282 282 282 282 282 281 280 280 279 278 278 277 277 277 277 276 273 272 272 273 275 275 275 275 276 277 278 278 279 279 279 278 276 275 274
284 286 287 288 288 288 287 285 285 286 286 285 284 283 282 282 282 282 282 281 279 279 278 277 277 275 274 274 276 276 275 275 276 277 279 279 279 279 278 278 277 276 275 274
285 286 286 287 288 288 287 285 285 286 286 285 285 284 284 283 283 283 283 281 280 279 278 278 278 278 276 276 276 276 275 276 277 278 278 279 280 279 279 278 276 276 275 274
284 286 286 286 288 289 286 284 283 284 286 285 285 284 284 284 283 282 282 281 280 280 279 278 277 278 277 276 275 275 276 277 278 278 278 278 279 279 278 278 278 277 276 275
Height
5801 5800 5800 5800 5800 5800 5800 5800 5800 5800 5800 5800 5800 5800 5799 5799 5798 5798 5799 5799 5799 5800 5800 5801 5801 5801 5801 5802 5802 5802 5802 5802 5802 5802 5803 5803 5803 5802 5803 5803 5803 5803 5804 5804
5794 5794 5793 5793 5793 5793 5793 5793 5793 5793 5793 5794 5793 5792 5791 5791 5791 5791 5792 5793 5793 5794 5794 5794 5795 5795 5795 5796 5796 5796 5796 5797 5797 5797 5797 5797 5797 5797 5798 5798 5798 5799 5799 5799
5787 5787 5786 5786 5787 5786 5786 5786 5786 5786 5787 5786 5785 5785 5784 5784 5784 5784 5785 5786 5786 5787 5787 5788 5788 5788 5789 5789 5790 5790 5790 5790 5791 5791 5791 5792 5792 5792 5792 5793 5793 5794 5794 5795
5780 5781 5779 5782 5779 5779 5778 5778 5778 5778 5778 5778 5777 5777 5776 5776 5777 5777 5778 5778 5779 5779 5780 5781 5781 5781 5782 5782 5783 5783 5783 5784 5784 5785 5785 5786 5786 5787 5787 5787 5788 5789 5789 5789
5774 5773 5772 5773 5772 5772 5771 5770 5771 5770 5769 5769 5769 5769 5768 5769 5770 5770 5770 5770 5771 5772 5773 5773 5774 5774 5775 5775 5775 5776 5777 5777 5778 5778 5778 5779 5780 5780 5781 5782 5782 5783 5784 5784
5767 5766 5766 5767 5766 5764 5764 5763 5763 5762 5762 5761 5761 5762 5761 5761 5762 5763 5763 5763 5764 5764 5765 5766 5766 5767 5768 5768 5769 5769 5769 5770 5770 5771 5771 5772 5773 5773 5774 5775 5775 5776 5777 5778
5761 5759 5759 5759 5758 5757 5758 5757 5755 5754 5754 5753 5753 5753 5753 5754 5754 5755 5755 5756 5756 5757 5758 5758 5759 5760 5760 5761 5761 5762 5762 5762 5763 5763 5764 5764 5765 5766 5767 5767 5768 5769 5770 5771
5754 5753 5754 5752 5751 5750 5750 5748 5747 5746 5745 5745 5745 5745 5746 5746 5746 5746 5747 5748 5748 5749 5750 5751 5752 5752 5753 5754 5754 5754 5754 5755 5755 5756 5756 5757 5757 5758 5759 5759 5760 5761 5762 5763
5748 5748 5746 5744 5743 5742 5741 5740 5739 5738 5738 5738 5737 5737 5738 5738 5739 5739 5740 5740 5741 5742 5743 5743 5744 5744 5745 5746 5746 5746 5746 5747 5747 5748 5748 5748 5749 5750 5751 5751 5752 5753 5754 5755
5740 5739 5738 5737 5736 5734 5733 5732 5731 5731 5730 5730 5730 5730 5730 5731 5731 5732 5732 5733 5733 5734 5735 5736 5736 5735 5736 5738 5738 5738 5738 5739 5739 5739 5740 5740 5741 5741 5742 5743 5744 5745 5746 5747
5733 5732 5731 5730 5729 5727 5726 5724 5723 5722 5722 5722 5722 5722 5723 5723 5723 5724 5724 5725 5725 5726 5727 5727 5728 5728 5729 5729 5730 5730 5730 5731 5731 5731 5731 5731 5732 5732 5733 5734 5735 5736 5737 5738
5726 5725 5723 5722 5721 5719 5718 5717 5716 5715 5714 5714 5714 5714 5714 5715 5715 5716 5716 5717 5717 5718 5718 5719 5719 5720 5720 5721 5721 5721 5722 5722 5722 5722 5723 5723 5723 5724 5724 5725 5725 5726 5727 5728
5717 5716 5715 5714 5713 5711 5710 5709 5708 5707 5707 5706 5706 5706 5706 5707 5707 5708 5708 5708 5709 5709 5709 5710 5710 5711 5711 5711 5712 5712 5713 5713 5713 5714 5714 5714 5714 5714 5715 5716 5716 5716 5717 5718
5709 5708 5707 5706 5705 5703 5702 5701 5700 5699 5699 5699 5699 5699 5699 5699 5700 5700 5700 5700 5700 5700 5700 5701 5701 5701 5702 5702 5702 5703 5703 5703 5704 5704 5704 5705 5705 5706 5706 5706 5707 5707 5707 5708
5702 5700 5699 5698 5696 5695 5694 5693 5692 5692 5691 5691 5691 5691 5691 5691 5691 5691 5691 5691 5691 5691 5691 5691 5692 5692 5692 5692 5693 5693 5693 5694 5694 5695 5695 5695 5696 5696 5696 5696 5697 5697 5697 5698
5694 5692 5691 5689 5688 5686 5685 5684 5684 5684 5683 5683 5683 5683 5682 5682 5682 5682 5682 5682 5682 5682 5682 5682 5682 5682 5683 5683 5683 5684 5684 5684 5684 5685 5685 5685 5685 5686 5686 5686 5686 5687 5687 5687
5685 5684 5682 5681 5679 5678 5676 5675 5675 5675 5675 5675 5674 5674 5674 5674 5674 5673 5673 5673 5673 5673 5673 5672 5672 5673 5673 5673 5673 5674 5674 5674 5675 5675 5675 5675 5675 5676 5676 5676 5676 5676 5676 5676
5676 5675 5674 5672 5671 5669 5668 5667 5667 5667 5666 5666 5666 5665 5665 5665 5665 5665 5664 5664 5664 5663 5663 5663 5663 5663 5663 5663 5664 5664 5665 5665 5665 5665 5665 5665 5665 5665 5666 5666 5666 5666 5665 5665
5668 5667 5665 5664 5662 5661 5660 5659 5658 5658 5658 5657 5657 5656 5656 5656 5655 5655 5655 5654 5654 5654 5654 5653 5653 5653 5653 5653 5654 5654 5654 5655 5655 5655 5655 5655 5654 5654 5654 5654 5654 5654 5654 5654
5660 5659 5657 5656 5655 5653 5652 5651 5650 5649 5649 5648 5647 5647 5647 5647 5646 5645 5645 5644 5644 5644 5643 5643 5643 5643 5643 5644 5644 5644 5644 5644 5644 5644 5644 5644 5644 5643 5643 5643 5642 5642 5642 5641
5652 5650 5649 5648 5646 5645 5644 5642 5641 5640 5640 5639 5638 5638 5637 5636 5636 5635 5635 5635 5635 5634 5633 5633 5633 5633 5633 5633 5633 5633 5634 5634 5633 5633 5633 5633 5633 5632 5632 5631 5630 5630 5629 5629
5643 5642 5640 5639 5638 5637 5635 5634 5633 5631 5630 5630 5629 5628 5627 5627 5626 5626 5625 5625 5625 5624 5624 5624 5623 5623 5623 5623 5623 5623 5623 5623 5623 5622 5622 5622 5621 5621 5620 5619 5618 5618 5617 5617
5635 5633 5632 5630 5629 5628 5627 5625 5624 5623 5622 5620 5619 5619 5618 5617 5616 5616 5616 5616 5615 5615 5614 5614 5613 5613 5613 5613 5613 5613 5613 5612 5612 5612 5611 5610 5610 5609 5609 5608 5607 5606 5606 5606
5627 5626 5624 5622 5621 5619 5618 5617 5615 5614 5613 5612 5610 5609 5608 5608 5607 5607 5606 5606 5605 5605 5604 5604 5603 5603 5603 5603 5603 5603 5603 5602 5602 5601 5600 5600 5599 5598 5598 5597 5596 5595 5595 5595
5619 5618 5616 5615 5613 5612 5610 5609 5607 5606 5604 5603 5601 5600 5599 5599 5598 5598 5597 5596 5596 5595 5595 5594 5594 5593 5593 5593 5593 5592 5592 5592 5591 5591 5590 5589 5588 5587 5587 5586 5585 5585 5584 5584
5611 5610 5609 5607 5605 5604 5602 5601 5600 5598 5597 5595 5594 5593 5592 5591 5590 5589 5588 5587 5587 5586 5585 5585 5584 5584 5584 5583 5583 5582 5582 5582 5581 5581 5580 5579 5578 5577 5576 5575 5574 5574 5573 5573
5603 5602 5600 5599 5598 5596 5594 5593 5592 5590 5589 5588 5586 5585 5584 5583 5582 5581 5580 5579 5578 5577 5576 5576 5575 5575 5575 5574 5574 5573 5572 5572 5571 5570 5570 5569 5568 5566 5566 5565 5564 5563 5562 5562